User: anonymous   Login
Location: Unspecified
(0.0000°N, 0.0000°E)
Time: 08:04:56
(UTC+00:00)
Language:

Mayak - Orbit

View from above orbital plane
View from above orbital plane
View from above satellite
View from above satellite

Ground track
Ground track

The orbit data is extracted from the following two-line orbital elements,

1 42830U 17042F   17348.16453473  .00000922  00000-0  98499-4 0  9993
2 42830  97.6086 252.3767 0015884  91.3868 268.9170 14.91010220 22768
Epoch (UTC): 14 December 2017 03:56:55
Eccentricity: 0.0015884
inclination: 97.6086°
perigee height: 584 km
apogee height: 606 km
right ascension of ascending node: 252.3767°
argument of perigee: 91.3868°
revolutions per day: 14.91010220
mean anomaly at epoch: 268.9170°
orbit number at epoch: 2276

The dashed part of the orbit path shows where the satellite is in the earth's shadow,  

DLR